Location: Góry Miechowskie
(50.3599°N, 20.1803°E)
Time: 06:47:17
(UTC+00:00)

Courier 1B - Pass Details

Date: 20 September 2024
Orbit: 962 x 1208 km, 28.3° (Epoch: 12 October)

Event Time Altitude Azimuth Distance (km) Brightness Sun altitude
Rises 12:30:12 0° 226° (SW) 3,802 11.6 34.5°
Reaches altitude 10° 12:35:15 10° 195° (SSW) 2,915 11.2 34.0°
Maximum altitude 12:37:19 11° 178° (S) 2,840 10.8 33.8°
Drops below altitude 10° 12:39:25 10° 161° (SSE) 2,970 10.5 33.6°
Sets 12:44:45 0° 130° (SE) 3,996 10.7 33.0°
